Location: Saginaw
(43.4195°N, 83.9508°W)
Time: 18:41:43
(UTC-04:00)

Daily predictions for brighter satellites

Satellite Brightness Start Highest point End
(mag) Time Altitude Azimuth Time Altitude Azimuth Time Altitude Azimuth
Milstar 3 Cent rocket 4.1 21:28:40 10° WSW 21:34:10 19° SSW 21:38:08 10° SSE
PSLV R/B 4.4 21:37:33 10° SE 21:40:11 26° ENE 21:42:52 10° NNE
CZ-2C R/B 0.7 21:37:55 10° S 21:40:12 66° WSW 21:42:32 10° NNW
H-2A R/B 3.8 21:37:26 10° S 21:41:16 49° W 21:45:08 10° NNW
ERS-1 Rocket 3.0 21:39:23 10° SSE 21:44:23 87° WSW 21:49:27 10° NNW
BREEZE-M DEB (TANK) 3.6 21:39:55 10° SSW 21:44:36 28° SSE 21:46:52 10° E
Envisat 3.3 21:40:39 10° SE 21:45:33 51° ENE 21:50:28 10° N
Cosmos 1606 Rocket 4.0 21:41:23 10° NNW 21:45:49 65° W 21:50:09 10° S
Cosmos 1110 Rocket 4.2 21:40:31 10° NNW 21:45:50 76° WSW 21:51:05 10° SSE
FENGYUN 3A 4.5 21:41:37 10° S 21:46:50 53° W 21:52:08 10° NNW
USA 234 3.6 21:43:58 10° ESE 21:50:26 65° NE 21:56:57 10° NW
YAOGAN 6 4.2 21:50:27 10° ESE 21:53:24 23° ENE 21:56:23 10° NNE
H-2A R/B 2.2 21:49:53 10° S 21:54:06 80° WSW 21:58:28 10° NNW
Abrixas rocket 2.4 21:57:21 10° WNW 22:00:46 69° SSW 22:03:38 14° SE
ATLAS CENTAUR R/B 3.2 21:58:34 10° WSW 22:03:21 45° NW 22:08:13 10° NNE
Cosmos 1626 Rocket 3.9 21:59:05 10° SSE 22:03:21 48° E 22:07:38 10° NNE
Cosmos 2237 Rocket 4.0 22:01:34 10° WSW 22:06:44 36° NW 22:11:56 10° N
Atlas Centaur 2 4.0 22:06:14 10° SSW 22:12:19 25° SSE 22:18:15 12° ESE
Cosmos 2278 Rocket 4.2 22:08:13 10° NW 22:12:44 25° WSW 22:17:12 10° SSW
Meteor 1-15 Rocket 4.4 22:10:13 10° NNW 22:15:48 77° W 22:21:25 10° S
Cosmos 2228 3.3 22:12:15 10° NNW 22:16:39 71° W 22:21:02 10° S
Cosmos 1891 Rocket 4.5 22:11:51 10° N 22:18:03 87° W 22:24:06 10° S
Cosmos 494 Rocket 4.5 22:15:30 10° SSW 22:20:33 63° WNW 22:25:39 10° NNE
PSLV R/B 4.4 22:17:51 10° SW 22:20:52 26° SSE 22:22:27 19° ESE
Aureole 2 Rocket 2.8 22:18:04 10° SSW 22:22:02 77° WNW 22:25:39 10° NNE
H-2A R/B 3.5 22:19:20 12° ESE 22:22:29 22° ENE 22:26:17 10° NNE
COSMOS 2455 3.3 22:17:46 10° S 22:23:18 40° ESE 22:28:53 10° NE
Cosmos 1939 Rocket 3.7 22:19:17 10° S 22:23:20 51° W 22:27:24 10° NNW
Cosmos 2369 Rocket 3.2 22:22:14 10° N 22:27:24 34° NE 22:31:20 16° ESE
SPOT 1/Viking Rocket 3.6 22:26:44 17° SSE 22:30:44 64° ENE 22:35:51 10° N
Cosmos 1666 3.7 22:27:00 10° NNW 22:30:45 46° W 22:34:29 10° SSW
SPOT 5 2.9 22:26:56 11° S 22:31:09 66° WSW 22:35:29 10° NNW
ARGOS 3.4 22:29:23 18° SE 22:33:19 55° ENE 22:38:37 10° N
SL-16 R/B 3.3 22:28:13 10° SW 22:33:39 47° WNW 22:39:08 10° NNE
Lacrosse 5 rocket 3.3 22:33:56 10° W 22:37:29 32° NNW 22:41:13 10° NNE
Geosat 4.5 22:33:53 10° NE 22:38:34 38° ESE 22:42:04 16° S
NOAA 11 4.4 22:37:26 20° SE 22:41:09 59° ENE 22:46:28 10° N
Tsikada Rocket 4.1 22:36:01 10° S 22:42:26 84° W 22:48:52 10° N
DEBRIS 3.5 22:40:28 10° WNW 22:44:23 28° SW 22:45:19 22° SSW
Lacrosse 5 4.5 22:41:59 10° WNW 22:45:53 22° NNW 22:49:46 10° NNE
SeaSat 1 3.5 22:50:09 14° S 22:54:01 38° WSW 22:58:37 10° NW
Lacrosse 4 Rocket 2.9 22:55:02 20° E 22:55:02 20° E 22:57:25 10° ENE
Cosmos 1758 Rocket 4.4 22:53:08 27° SE 22:54:28 33° E 22:58:24 10° NNE
SL-08 RB Rocket 3.7 22:55:15 27° SSE 22:57:43 76° ENE 23:02:16 10° N
CZ-4B R/B 3.7 22:52:41 10° N 22:57:44 74° WNW 23:02:52 10° SSW
Terra 2.5 22:56:20 25° ESE 22:58:29 40° ENE 23:02:56 10° N
CARTOSAT-1 4.3 22:57:34 27° ESE 22:59:17 40° ENE 23:03:20 10° N
Cosmos 1515 3.7 22:58:52 22° S 23:01:15 84° W 23:05:08 10° N
Cosmos 1066 Rocket 4.3 22:57:30 21° S 23:01:21 65° E 23:07:06 10° NNE
Cosmos 1603 4.0 22:56:45 10° SSW 23:02:20 69° WNW 23:07:57 10° NNE
Cosmos 1346 Rocket 3.1 23:03:04 37° SE 23:04:03 45° E 23:07:48 10° NNE
Cosmos 1461 4.2 23:05:30 10° NW 23:09:15 30° WSW 23:11:08 21° SSW
Cosmos 2142 Rocket 4.5 23:05:30 10° N 23:11:51 87° E 23:15:39 26° S
Cosmos 1825 Rocket 3.5 23:10:25 26° S 23:12:55 90° WNW 23:17:23 10° N
Meteor 1-21 4.4 23:19:01 31° SSE 23:21:36 56° E 23:27:17 10° NNE
Cosmos 1842 4.0 23:23:02 36° E 23:23:11 36° E 23:26:49 10° NNE
Cosmos 1634 Rocket 4.1 23:18:01 10° NNW 23:24:11 73° W 23:27:54 25° S
ATLAS 3B R/B 3.0 23:17:02 10° SSW 23:24:34 60° ESE 23:31:57 10° NE
YAOGAN 6 4.5 23:24:55 17° SW 23:26:53 25° W 23:30:02 10° NW
Cosmos 1943 3.1 23:23:34 18° SSW 23:27:53 83° ESE 23:33:36 10° NNE
Cosmos 407 Rocket 3.5 23:27:24 34° S 23:29:37 64° ESE 23:34:48 10° NNE
USA 234 3.9 23:30:35 26° S 23:33:38 41° SW 23:39:46 10° WNW
Cosmos 1943 Rocket 2.6 23:34:46 10° NNW 23:40:10 50° ENE 23:42:15 33° ESE
Cosmos 1766 3.2 23:37:32 10° N 23:41:34 85° W 23:42:13 61° S
Cosmos 489 Rocket 4.4 23:42:47 25° SSW 23:46:43 87° ESE 23:53:07 10° NNE
Cosmos 1954 Rocket 4.2 23:47:02 46° SSE 23:48:09 54° ESE 23:53:20 10° NNE
Cosmos 2279 Rocket 4.0 23:43:41 10° N 23:49:57 79° W 23:52:42 36° S
CZ-4B R/B 4.2 23:50:30 11° ENE 23:50:51 11° ENE 23:52:03 10° NE
